sat.trackr.live / text

‹ back to catalog

STARLINK-31574

NORAD 59543 · 2024-074K

PAYLOAD ACTIVE UNKNOWN

§ Identity

Operator
Country
US
Launch date
2024-04-18
Launch site
AFETR
Launch vehicle
Mass (kg)
RCS (m²)

Purposes: comms

External: N2YO · Heavens-Above · Gunter

§ Orbital elements

Epoch: 2026-05-25T01:35:36.661056Z

Period
94.27 min
Inclination
43.0003°
Eccentricity
0.0000421
Mean motion
15.27570184 rev/d
Perigee alt
482.8 km
Apogee alt
483.4 km
Semi-major
6,861.2 km
B*
-1.7930e-5
RAAN
272.3199°
Arg perigee
300.9585°
Mean anomaly
59.1225°
Rev number
11,769

§ Raw data

STARLINK-315741 59543U 24074K   26145.06639654 -.00000755  00000+0 -17930-4 0  99922 59543  43.0003 272.3199 0000421 300.9585  59.1225 15.27570184117696

JSON: /api/v1/satellites/59543 · /tle

For live sub-satellite position, see the globe view (requires WebGL).

§ Visibility from observer

Set your observer location to see the next 7 days of passes ≥ 10°. The values pass through the URL so the page stays shareable.

No JS? Fill the form by hand. The geolocation button needs JavaScript.